When you browse on this site, cookies collect data to enhance your experience and personalize the content and advertising you see.
Visit our Privacy Policy to learn more. By continuing to use the site, you agree to this use of cookies and data.
  • In Germany
  • List of Countries
  • For 7 days
  • Water Temperature
  • Weather Map
  • Weather Widgets
  • user-avatar
    Login

    Hourly Weather Kazincbarcika

    Today, 23 February, Sunday

    Time Temperature Precipitation Wind Pressure Humidity
    00:00 +3°C° 0 mm 3 mps 751 mmHg 76%
    01:00 +3°C° 0 mm 3 mps 751 mmHg 77%
    02:00 +3°C° 0 mm 3 mps 751 mmHg 77%
    03:00 +3°C° 0 mm 3 mps 750 mmHg 77%
    04:00 +3°C° 0 mm 4 mps 750 mmHg 77%
    05:00 +3°C° 0 mm 4 mps 750 mmHg 80%
    06:00 +3°C° 0 mm 4 mps 749 mmHg 82%
    07:00 +3°C° 0 mm 4 mps 749 mmHg 85%
    08:00 +5°C° 0 mm 4 mps 749 mmHg 84%
    09:00 +6°C° 0 mm 5 mps 749 mmHg 83%
    10:00 +7°C° 0 mm 5 mps 748 mmHg 81%
    11:00 +7°C° 0 mm 5 mps 748 mmHg 80%
    12:00 +8°C° 0 mm 5 mps 747 mmHg 79%
    13:00 +8°C° 0 mm 5 mps 747 mmHg 78%
    14:00 +8°C° 0 mm 5 mps 746 mmHg 77%
    15:00 +8°C° 0 mm 6 mps 745 mmHg 77%
    16:00 +8°C° 0 mm 6 mps 744 mmHg 77%
    17:00 +8°C° 0.1 mm 6 mps 743 mmHg 77%
    18:00 +8°C° 0.1 mm 7 mps 743 mmHg 78%
    19:00 +6°C° 0.1 mm 7 mps 742 mmHg 78%
    20:00 +8°C° 0.1 mm 7 mps 742 mmHg 76%
    21:00 +8°C° 0.1 mm 7 mps 741 mmHg 74%
    22:00 +9°C° 0.1 mm 7 mps 740 mmHg 72%
    23:00 +9°C° 0.1 mm 8 mps 739 mmHg 72%

    Tomorrow, 24 February, Monday

    Time Temperature Precipitation Wind Pressure Humidity
    00:00 +10°C° 0.1 mm 8 mps 739 mmHg 72%
    01:00 +10°C° 0.1 mm 8 mps 739 mmHg 72%
    02:00 +9°C° 0.1 mm 8 mps 739 mmHg 65%
    03:00 +7°C° 0.1 mm 8 mps 740 mmHg 57%
    04:00 +6°C° 0.1 mm 8 mps 740 mmHg 50%
    05:00 +5°C° 0 mm 7 mps 742 mmHg 55%
    06:00 +4°C° 0 mm 6 mps 743 mmHg 60%
    07:00 +3°C° 0 mm 5 mps 744 mmHg 65%
    08:00 +5°C° 0 mm 5 mps 745 mmHg 58%
    09:00 +5°C° 0 mm 4 mps 746 mmHg 51%
    10:00 +6°C° 0 mm 4 mps 747 mmHg 45%
    11:00 +7°C° 0 mm 4 mps 747 mmHg 44%
    12:00 +7°C° 0 mm 4 mps 748 mmHg 43%
    13:00 +8°C° 0 mm 4 mps 748 mmHg 42%
    14:00 +8°C° 0 mm 4 mps 748 mmHg 45%
    15:00 +7°C° 0 mm 4 mps 748 mmHg 49%
    16:00 +7°C° 0 mm 5 mps 747 mmHg 53%
    17:00 +6°C° 0 mm 4 mps 747 mmHg 58%
    18:00 +5°C° 0 mm 3 mps 747 mmHg 63%
    19:00 +4°C° 0 mm 3 mps 747 mmHg 68%
    20:00 +4°C° 0 mm 2 mps 747 mmHg 70%
    21:00 +4°C° 0 mm 2 mps 747 mmHg 72%
    22:00 +5°C° 0 mm 1 mps 746 mmHg 74%
    23:00 +4°C° 0 mm 2 mps 746 mmHg 74%

    Day after tomorrow, 25 February, Tuesday

    Time Temperature Precipitation Wind Pressure Humidity
    00:00 +4°C° 0 mm 2 mps 745 mmHg 73%
    01:00 +4°C° 0 mm 2 mps 745 mmHg 73%
    02:00 +4°C° 0 mm 2 mps 744 mmHg 74%
    03:00 +4°C° 0 mm 2 mps 744 mmHg 76%
    04:00 +4°C° 0 mm 2 mps 743 mmHg 77%
    05:00 +3°C° 0 mm 2 mps 743 mmHg 78%
    06:00 +3°C° 0 mm 2 mps 742 mmHg 79%
    07:00 +2°C° 0 mm 2 mps 742 mmHg 80%
    08:00 +4°C° 0 mm 2 mps 742 mmHg 72%
    09:00 +5°C° 0 mm 2 mps 741 mmHg 65%
    10:00 +7°C° 0 mm 3 mps 741 mmHg 58%
    11:00 +8°C° 0 mm 3 mps 740 mmHg 58%
    12:00 +9°C° 0 mm 3 mps 740 mmHg 58%
    13:00 +10°C° 0 mm 2 mps 739 mmHg 58%
    14:00 +10°C° 0 mm 2 mps 739 mmHg 60%
    15:00 +10°C° 0 mm 2 mps 738 mmHg 63%
    16:00 +10°C° 0 mm 2 mps 737 mmHg 66%
    17:00 +9°C° 0 mm 2 mps 737 mmHg 70%
    18:00 +9°C° 0 mm 1 mps 737 mmHg 74%
    19:00 +8°C° 0 mm 1 mps 737 mmHg 77%
    20:00 +8°C° 0.2 mm 1 mps 737 mmHg 81%
    21:00 +8°C° 0.2 mm 1 mps 736 mmHg 84%
    22:00 +8°C° 0.2 mm 1 mps 736 mmHg 87%
    23:00 +8°C° 0 mm 1 mps 735 mmHg 89%

    26 February, Wednesday

    Time Temperature Precipitation Wind Pressure Humidity
    00:00 +8°C° 0 mm 1 mps 735 mmHg 92%
    01:00 +8°C° 0 mm 1 mps 734 mmHg 94%
    02:00 +8°C° 0.1 mm 1 mps 734 mmHg 95%
    03:00 +7°C° 0.1 mm 0 mps 733 mmHg 95%
    04:00 +7°C° 0.1 mm 0 mps 732 mmHg 96%
    05:00 +8°C° 1.7 mm 1 mps 732 mmHg 96%
    06:00 +8°C° 1.7 mm 1 mps 731 mmHg 97%
    07:00 +8°C° 1.7 mm 1 mps 731 mmHg 98%
    08:00 +8°C° 1.1 mm 1 mps 730 mmHg 94%
    09:00 +8°C° 1.1 mm 1 mps 730 mmHg 91%
    10:00 +9°C° 1.1 mm 1 mps 730 mmHg 87%
    11:00 +9°C° 0.1 mm 1 mps 729 mmHg 83%
    12:00 +9°C° 0.1 mm 1 mps 729 mmHg 78%
    13:00 +9°C° 0.1 mm 2 mps 729 mmHg 73%
    14:00 +9°C° 0.1 mm 2 mps 729 mmHg 74%
    15:00 +8°C° 0.1 mm 2 mps 728 mmHg 75%
    16:00 +8°C° 0.1 mm 2 mps 728 mmHg 75%
    17:00 +8°C° 0.2 mm 2 mps 729 mmHg 78%
    18:00 +7°C° 0.2 mm 2 mps 729 mmHg 81%
    19:00 +6°C° 0.2 mm 2 mps 729 mmHg 83%
    20:00 +7°C° 0.2 mm 1 mps 730 mmHg 84%
    21:00 +7°C° 0.2 mm 1 mps 730 mmHg 85%
    22:00 +6°C° 0.2 mm 1 mps 731 mmHg 86%
    23:00 +6°C° 0.2 mm 1 mps 731 mmHg 87%

    27 February, Thursday

    Time Temperature Precipitation Wind Pressure Humidity
    00:00 +5°C° 0.2 mm 2 mps 732 mmHg 87%
    01:00 +5°C° 0.2 mm 2 mps 732 mmHg 88%
    02:00 +4°C° 0.4 mm 2 mps 733 mmHg 86%
    03:00 +4°C° 0.4 mm 2 mps 733 mmHg 84%
    04:00 +4°C° 0.4 mm 1 mps 733 mmHg 81%
    05:00 +3°C° 0 mm 2 mps 734 mmHg 81%
    06:00 +3°C° 0 mm 2 mps 735 mmHg 81%
    07:00 +3°C° 0 mm 2 mps 735 mmHg 81%
    08:00 +4°C° 0 mm 2 mps 736 mmHg 74%
    09:00 +5°C° 0 mm 2 mps 737 mmHg 66%
    10:00 +5°C° 0 mm 3 mps 737 mmHg 58%
    11:00 +5°C° 0 mm 3 mps 738 mmHg 54%
    12:00 +7°C° 0 mm 3 mps 738 mmHg 50%
    13:00 +8°C° 0 mm 3 mps 738 mmHg 46%
    14:00 +7°C° 0 mm 3 mps 739 mmHg 46%
    15:00 +7°C° 0 mm 3 mps 739 mmHg 47%
    16:00 +5°C° 0 mm 4 mps 739 mmHg 47%
    17:00 +4°C° 0 mm 3 mps 740 mmHg 52%
    18:00 +4°C° 0 mm 2 mps 741 mmHg 58%
    19:00 +3°C° 0 mm 2 mps 741 mmHg 63%
    20:00 +3°C° 0 mm 2 mps 742 mmHg 66%
    21:00 +3°C° 0 mm 1 mps 742 mmHg 69%
    22:00 +3°C° 0 mm 1 mps 742 mmHg 72%
    23:00 +2°C° 0 mm 1 mps 742 mmHg 73%

    28 February, Friday

    Time Temperature Precipitation Wind Pressure Humidity
    00:00 +2°C° 0 mm 1 mps 742 mmHg 75%
    01:00 +1°C° 0 mm 0 mps 742 mmHg 76%
    02:00 0°C° 0 mm 0 mps 742 mmHg 77%
    03:00 0°C° 0 mm 0 mps 742 mmHg 77%
    04:00 0°C° 0 mm 0 mps 742 mmHg 78%
    05:00 0°C° 0 mm 0 mps 743 mmHg 78%
    06:00 0°C° 0 mm 0 mps 743 mmHg 78%
    07:00 +1°C° 0 mm 1 mps 743 mmHg 78%
    08:00 +3°C° 0 mm 1 mps 743 mmHg 71%
    09:00 +3°C° 0 mm 2 mps 743 mmHg 64%
    10:00 +4°C° 0 mm 3 mps 744 mmHg 58%
    11:00 +5°C° 0 mm 3 mps 743 mmHg 57%
    12:00 +5°C° 0 mm 4 mps 743 mmHg 57%
    13:00 +6°C° 0 mm 4 mps 743 mmHg 57%
    14:00 +6°C° 0 mm 4 mps 743 mmHg 61%
    15:00 +7°C° 0 mm 3 mps 743 mmHg 66%
    16:00 +7°C° 0 mm 3 mps 743 mmHg 70%
    17:00 +5°C° 0 mm 3 mps 743 mmHg 75%
    18:00 +5°C° 0 mm 2 mps 744 mmHg 79%
    19:00 +5°C° 0 mm 2 mps 744 mmHg 84%
    20:00 +5°C° 0 mm 2 mps 744 mmHg 84%
    21:00 +5°C° 0 mm 1 mps 744 mmHg 84%
    22:00 +5°C° 0 mm 1 mps 744 mmHg 83%
    23:00 +5°C° 0 mm 1 mps 744 mmHg 84%
    Show more